Chatham, MA

6:43 AM EST on December 07, 2019 (GMT -0500)
Chatham Municipal

Weather History for KCQX - October, 2019

Change the Weather History Date:

Monday, October 28, 2019

  Actual Average Record
Temperature  
Mean Temperature 54 °F -  
Max Temperature 55 °F 54 °F 66 °F (1989)
Min Temperature 53 °F 42 °F 32 °F (2001)
Degree Days  
Heating Degree Days 11    
Growing Degree Days 4 (Base 50)    
Moisture  
Dew Point 50 °F    
Average Humidity 87    
Maximum Humidity 100    
Minimum Humidity 77    
Precipitation  
Precipitation 0.00 in - - ()
Sea Level Pressure  
Sea Level Pressure 30.12 in    
Wind  
Wind Speed 12 mph (NE)    
Max Wind Speed 16 mph    
Max Gust Speed 34 mph    
Visibility 9 miles    
Events Rain    
Averages and records for this station are not official NWS values.
T = Trace of Precipitation, MM = Missing Value Source: NWS Daily Summary

Daily Weather History Graph

Daily Weather History Graph

Search for Another Location

Airport or City:

Astronomy

Oct. 28, 2019 Rise Set
Actual Time 7:06 AM EDT 5:39 PM EDT
Civil Twilight 6:38 AM EDT 6:08 PM EDT
Nautical Twilight 6:05 AM EDT 6:41 PM EDT
Astronomical Twilight 5:33 AM EDT 7:13 PM EDT
Moon 7:24 AM EDT (10/28) 6:23 PM EDT (10/28)
Length of Visible Light 11h 30m
Length of Day
10h 33m
New Moon, 0% of the Moon is Illuminated
Oct 28
New Moon
Nov 4
First Quarter
Nov 12
Full
Nov 19
Last Quarter
Nov 26
New

Hourly Weather History & Observations

Time (EDT) Temp. Dew Point Humidity Pressure Visibility Wind Dir Wind Speed Gust Speed Precip Events Conditions
12:09 AM 55.0 °F 55.0 °F 100% 29.70 in 5.0 mi WNW 15.0 mph 28.8 mph N/A   Overcast
12:52 AM 54.0 °F 53.1 °F 97% 29.73 in 10.0 mi NW 13.8 mph 31.1 mph N/A   Overcast
1:39 AM 54.0 °F 53.1 °F 97% 29.76 in 9.0 mi NNW 16.1 mph 26.5 mph N/A   Overcast
1:52 AM 54.0 °F 52.0 °F 93% 29.77 in 10.0 mi NNW 15.0 mph 28.8 mph N/A   Overcast
2:52 AM 54.0 °F 52.0 °F 93% 29.82 in 10.0 mi North 16.1 mph 34.5 mph 0.00 in   Overcast
3:52 AM 53.1 °F 51.1 °F 93% 29.86 in 10.0 mi North 12.7 mph 20.7 mph N/A   Overcast
4:52 AM 53.1 °F 51.1 °F 93% 29.92 in 10.0 mi Variable 6.9 mph 25.3 mph 0.00 in   Overcast
5:52 AM 53.1 °F 50.0 °F 89% 29.96 in 10.0 mi North 12.7 mph 23.0 mph N/A   Overcast
6:52 AM 53.1 °F 48.9 °F 86% 30.00 in 9.0 mi NNE 15.0 mph 24.2 mph N/A   Overcast
7:52 AM 53.1 °F 48.9 °F 86% 30.05 in 10.0 mi NNE 9.2 mph 24.2 mph N/A   Overcast
8:52 AM 53.1 °F 50.0 °F 89% 30.09 in 9.0 mi NNE 8.1 mph 23.0 mph 0.00 in   Overcast
9:14 AM 53.1 °F 50.0 °F 89% 30.11 in 10.0 mi NNE 11.5 mph 20.7 mph 0.00 in   Overcast
9:24 AM 53.1 °F 50.0 °F 89% 30.11 in 7.0 mi NNE 11.5 mph 24.2 mph 0.00 in   Overcast
9:52 AM 54.0 °F 50.0 °F 86% 30.13 in 10.0 mi NNE 11.5 mph 21.9 mph 0.00 in   Overcast
10:47 AM 53.6 °F 50.0 °F 88% 30.16 in 9.0 mi NNE 9.2 mph 20.7 mph 0.00 in   Overcast
10:52 AM 54.0 °F 50.0 °F 86% 30.17 in 10.0 mi NE 9.2 mph 17.3 mph 0.00 in   Overcast
11:20 AM 55.0 °F 48.9 °F 80% 30.17 in 10.0 mi NE 10.4 mph - N/A   Overcast
11:52 AM 55.9 °F 48.9 °F 77% 30.19 in 10.0 mi NE 8.1 mph 18.4 mph N/A   Overcast
12:52 PM 55.9 °F 48.9 °F 77% 30.19 in 10.0 mi NE 5.8 mph - N/A   Overcast
1:52 PM 55.0 °F 50.0 °F 83% 30.20 in 10.0 mi NE 11.5 mph 17.3 mph N/A   Overcast
2:28 PM 54.0 °F 50.0 °F 86% 30.21 in 10.0 mi NE 8.1 mph - N/A   Overcast
2:52 PM 54.0 °F 50.0 °F 86% 30.23 in 10.0 mi NNE 8.1 mph - N/A   Overcast
3:02 PM 54.0 °F 50.0 °F 86% 30.22 in 6.0 mi NE 6.9 mph - N/A   Overcast
3:52 PM 53.1 °F 51.1 °F 93% 30.24 in 4.0 mi NE 9.2 mph - 0.00 in Rain Light Rain
4:00 PM 53.1 °F 51.1 °F 93% 30.23 in 4.0 mi NE 9.2 mph - 0.00 in   Overcast
4:20 PM 53.1 °F 51.1 °F 93% 30.24 in 7.0 mi NE 8.1 mph - 0.00 in   Overcast
4:52 PM 53.1 °F 50.0 °F 89% 30.26 in 10.0 mi NE 6.9 mph - 0.00 in   Overcast
5:52 PM 54.0 °F 50.0 °F 86% 30.27 in 8.0 mi ENE 8.1 mph - N/A   Overcast
6:52 PM 54.0 °F 48.9 °F 83% 30.30 in 10.0 mi ENE 4.6 mph - N/A   Overcast
7:52 PM 54.0 °F 48.9 °F 83% 30.31 in 10.0 mi ENE 6.9 mph - N/A   Overcast
8:52 PM 54.0 °F 48.0 °F 80% 30.33 in 10.0 mi ENE 6.9 mph - N/A   Overcast
9:52 PM 54.0 °F 48.0 °F 80% 30.33 in 10.0 mi East 9.2 mph - N/A   Overcast
10:52 PM 53.1 °F 46.9 °F 80% 30.33 in 10.0 mi East 12.7 mph 17.3 mph N/A   Overcast
11:52 PM 53.1 °F 46.9 °F 80% 30.34 in 10.0 mi East 10.4 mph - N/A   Overcast